Time,TemperatureF,DewpointF,PressureIn,WindDirection,WindDirectionDegrees,WindSpeedMPH,WindSpeedGustMPH,Humidity,HourlyPrecipIn,Conditions,Clouds,dailyrainin,SoftwareType,DateUTC
2013-05-16 00:00:00,59.6,-99.9,29.96,East,83,0.0,0.0,-999,-99.99,,,-99.99,,2013-05-16 07:00:00,
2013-05-16 00:10:00,59.5,-99.9,29.96,SSW,193,0.0,0.0,-999,-99.99,,,-99.99,,2013-05-16 07:10:00,
2013-05-16 00:20:00,59.4,-99.9,29.96,SSW,193,0.0,0.0,-999,-99.99,,,-99.99,,2013-05-16 07:20:00,
2013-05-16 00:30:00,59.5,-99.9,29.96,SSW,193,0.0,9.0,-999,-99.99,,,-99.99,,2013-05-16 07:30:00,
2013-05-16 00:35:00,59.5,-99.9,29.96,SW,235,0.0,0.0,-999,-99.99,,,-99.99,,2013-05-16 07:35:00,
2013-05-16 00:45:00,59.2,-99.9,29.96,NE,47,0.0,0.0,-999,-99.99,,,-99.99,,2013-05-16 07:45:00,
2013-05-16 00:50:00,59.4,-99.9,29.96,NE,47,0.0,0.0,-999,-99.99,,,-99.99,,2013-05-16 07:50:00,
2013-05-16 01:00:00,59.3,-99.9,29.95,NE,47,0.0,0.0,-999,-99.99,,,-99.99,,2013-05-16 08:00:00,
2013-05-16 01:10:00,58.9,-99.9,29.96,East,81,0.0,14.6,-999,-99.99,,,-99.99,,2013-05-16 08:10:00,
2013-05-16 01:20:00,58.6,-99.9,29.95,East,84,5.3,5.3,-999,-99.99,,,-99.99,,2013-05-16 08:20:00,
2013-05-16 01:25:00,58.6,-99.9,29.95,NNE,22,0.0,0.0,-999,-99.99,,,-99.99,,2013-05-16 08:25:00,
2013-05-16 01:30:00,59.0,-99.9,29.94,NNE,22,0.0,0.0,-999,-99.99,,,-99.99,,2013-05-16 08:30:00,
2013-05-16 01:35:00,59.2,-99.9,29.95,NNE,22,0.0,0.0,-999,-99.99,,,-99.99,,2013-05-16 08:35:00,
2013-05-16 01:40:00,59.2,-99.9,29.95,NNE,22,0.0,0.0,-999,-99.99,,,-99.99,,2013-05-16 08:40:00,
2013-05-16 01:50:00,59.1,-99.9,29.94,NNE,22,0.0,0.0,-999,-99.99,,,-99.99,,2013-05-16 08:50:00,
2013-05-16 02:00:00,58.9,-99.9,29.94,NE,50,7.7,19.8,-999,-99.99,,,-99.99,,2013-05-16 09:00:00,
2013-05-16 02:10:00,58.8,-99.9,29.94,ENE,63,0.0,0.0,-999,-99.99,,,-99.99,,2013-05-16 09:10:00,
2013-05-16 02:20:00,58.9,-99.9,29.93,ESE,117,0.0,0.0,-999,-99.99,,,-99.99,,2013-05-16 09:20:00,
2013-05-16 02:30:00,59.1,-99.9,29.93,WNW,282,0.0,6.4,-999,-99.99,,,-99.99,,2013-05-16 09:30:00,
2013-05-16 02:40:00,59.2,-99.9,29.93,ENE,73,0.0,0.0,-999,-99.99,,,-99.99,,2013-05-16 09:40:00,
2013-05-16 02:50:00,59.0,-99.9,29.93,WSW,245,0.0,9.0,-999,-99.99,,,-99.99,,2013-05-16 09:50:00,
2013-05-16 03:00:00,59.1,-99.9,29.93,ESE,105,0.0,0.0,-999,-99.99,,,-99.99,,2013-05-16 10:00:00,
2013-05-16 03:10:00,59.1,-99.9,29.93,ENE,62,0.0,0.0,-999,-99.99,,,-99.99,,2013-05-16 10:10:00,
2013-05-16 03:20:00,59.2,-99.9,29.93,South,182,0.0,15.0,-999,-99.99,,,-99.99,,2013-05-16 10:20:00,
2013-05-16 03:30:00,59.2,-99.9,29.93,NE,49,0.0,0.0,-999,-99.99,,,-99.99,,2013-05-16 10:30:00,
2013-05-16 03:40:00,59.2,-99.9,29.93,ESE,119,0.0,0.0,-999,-99.99,,,-99.99,,2013-05-16 10:40:00,
2013-05-16 03:50:00,58.9,-99.9,29.92,ENE,71,0.0,0.0,-999,-99.99,,,-99.99,,2013-05-16 10:50:00,
2013-05-16 04:00:00,58.8,-99.9,29.92,NE,45,0.0,0.0,-999,-99.99,,,-99.99,,2013-05-16 11:00:00,
2013-05-16 04:10:00,58.7,-99.9,29.92,East,100,8.4,13.2,-999,-99.99,,,-99.99,,2013-05-16 11:10:00,
2013-05-16 04:15:00,58.8,-99.9,29.92,NE,45,0.0,0.0,-999,-99.99,,,-99.99,,2013-05-16 11:15:00,
2013-05-16 04:20:00,58.8,-99.9,29.92,ESE,110,8.2,13.0,-999,-99.99,,,-99.99,,2013-05-16 11:20:00,
2013-05-16 04:30:00,59.0,-99.9,29.92,WNW,296,0.0,0.0,-999,-99.99,,,-99.99,,2013-05-16 11:30:00,
2013-05-16 04:35:00,59.1,-99.9,29.92,WNW,296,0.0,0.0,-999,-99.99,,,-99.99,,2013-05-16 11:35:00,
2013-05-16 04:40:00,59.1,-99.9,29.91,WNW,295,8.7,12.9,-999,-99.99,,,-99.99,,2013-05-16 11:40:00,
2013-05-16 04:45:00,59.1,-99.9,29.92,WNW,285,0.0,0.0,-999,-99.99,,,-99.99,,2013-05-16 11:45:00,
2013-05-16 04:50:00,59.0,-99.9,29.92,ESE,103,0.0,0.0,-999,-99.99,,,-99.99,,2013-05-16 11:50:00,
2013-05-16 04:55:00,58.8,-99.9,29.92,ENE,76,0.0,7.4,-999,-99.99,,,-99.99,,2013-05-16 11:55:00,
2013-05-16 05:00:00,59.0,-99.9,29.92,ENE,76,0.0,0.0,-999,-99.99,,,-99.99,,2013-05-16 12:00:00,
2013-05-16 05:10:00,59.0,-99.9,29.92,ENE,69,0.0,6.8,-999,-99.99,,,-99.99,,2013-05-16 12:10:00,
2013-05-16 05:15:00,58.8,-99.9,29.92,ENE,69,0.0,0.0,-999,-99.99,,,-99.99,,2013-05-16 12:15:00,
2013-05-16 05:20:00,58.7,-99.9,29.92,NE,43,0.0,0.0,-999,-99.99,,,-99.99,,2013-05-16 12:20:00,
2013-05-16 05:25:00,58.6,-99.9,29.92,East,80,8.2,15.6,-999,-99.99,,,-99.99,,2013-05-16 12:25:00,
2013-05-16 05:30:00,58.4,-99.9,29.92,ENE,66,6.8,6.8,-999,-99.99,,,-99.99,,2013-05-16 12:30:00,
2013-05-16 05:35:00,58.5,-99.9,29.92,East,88,0.0,9.0,-999,-99.99,,,-99.99,,2013-05-16 12:35:00,
2013-05-16 05:40:00,58.5,-99.9,29.92,East,88,0.0,0.0,-999,-99.99,,,-99.99,,2013-05-16 12:40:00,
2013-05-16 05:45:00,58.8,-99.9,29.92,East,88,0.0,0.0,-999,-99.99,,,-99.99,,2013-05-16 12:45:00,
2013-05-16 05:50:00,58.7,-99.9,29.92,East,88,0.0,0.0,-999,-99.99,,,-99.99,,2013-05-16 12:50:00,
2013-05-16 05:55:00,58.6,-99.9,29.93,East,88,0.0,0.0,-999,-99.99,,,-99.99,,2013-05-16 12:55:00,
2013-05-16 06:00:00,58.5,-99.9,29.93,East,88,0.0,0.0,-999,-99.99,,,-99.99,,2013-05-16 13:00:00,
2013-05-16 06:05:00,58.7,-99.9,29.93,East,88,0.0,0.0,-999,-99.99,,,-99.99,,2013-05-16 13:05:00,
2013-05-16 06:10:00,58.6,-99.9,29.93,East,88,0.0,0.0,-999,-99.99,,,-99.99,,2013-05-16 13:10:00,
2013-05-16 06:15:00,58.8,-99.9,29.93,East,88,0.0,0.0,-999,-99.99,,,-99.99,,2013-05-16 13:15:00,
2013-05-16 06:20:00,58.7,-99.9,29.93,East,88,0.0,0.0,-999,-99.99,,,-99.99,,2013-05-16 13:20:00,
2013-05-16 06:25:00,58.8,-99.9,29.93,East,88,0.0,0.0,-999,-99.99,,,-99.99,,2013-05-16 13:25:00,
2013-05-16 06:30:00,58.8,-99.9,29.93,East,88,0.0,0.0,-999,-99.99,,,-99.99,,2013-05-16 13:30:00,
2013-05-16 06:40:00,58.7,-99.9,29.94,SW,228,0.0,0.0,-999,-99.99,,,-99.99,,2013-05-16 13:40:00,
2013-05-16 06:45:00,58.7,-99.9,29.94,East,95,0.0,0.0,-999,-99.99,,,-99.99,,2013-05-16 13:45:00,
2013-05-16 06:50:00,58.7,-99.9,29.94,East,86,0.0,6.3,-999,-99.99,,,-99.99,,2013-05-16 13:50:00,
2013-05-16 06:55:00,58.7,-99.9,29.94,SE,134,8.9,8.9,-999,-99.99,,,-99.99,,2013-05-16 13:55:00,
2013-05-16 07:00:00,58.3,-99.9,29.94,ENE,77,0.0,0.0,-999,-99.99,,,-99.99,,2013-05-16 14:00:00,
2013-05-16 07:05:00,58.5,-99.9,29.94,ENE,77,0.0,0.0,-999,-99.99,,,-99.99,,2013-05-16 14:05:00,
2013-05-16 07:10:00,58.5,-99.9,29.94,ENE,77,0.0,0.0,-999,-99.99,,,-99.99,,2013-05-16 14:10:00,
2013-05-16 07:15:00,58.8,-99.9,29.95,ENE,77,0.0,0.0,-999,-99.99,,,-99.99,,2013-05-16 14:15:00,
2013-05-16 07:20:00,58.7,-99.9,29.94,WSW,238,0.0,12.4,-999,-99.99,,,-99.99,,2013-05-16 14:20:00,
2013-05-16 07:30:00,58.8,-99.9,29.94,WNW,283,0.0,0.0,-999,-99.99,,,-99.99,,2013-05-16 14:30:00,
2013-05-16 07:35:00,58.9,-99.9,29.95,WNW,283,0.0,0.0,-999,-99.99,,,-99.99,,2013-05-16 14:35:00,
2013-05-16 07:40:00,58.9,-99.9,29.95,WNW,283,0.0,0.0,-999,-99.99,,,-99.99,,2013-05-16 14:40:00,
2013-05-16 07:45:00,58.4,-99.9,29.95,ENE,66,0.0,11.9,-999,-99.99,,,-99.99,,2013-05-16 14:45:00,
2013-05-16 07:50:00,58.7,-99.9,29.95,ENE,59,0.0,0.0,-999,-99.99,,,-99.99,,2013-05-16 14:50:00,
2013-05-16 08:00:00,58.8,-99.9,29.96,ESE,117,0.0,0.0,-999,-99.99,,,-99.99,,2013-05-16 15:00:00,
2013-05-16 08:10:00,58.9,-99.9,29.96,WNW,283,0.0,9.0,-999,-99.99,,,-99.99,,2013-05-16 15:10:00,
2013-05-16 08:15:00,58.8,-99.9,29.96,West,261,0.0,0.0,-999,-99.99,,,-99.99,,2013-05-16 15:15:00,
2013-05-16 08:20:00,58.6,-99.9,29.95,ENE,73,7.6,14.3,-999,-99.99,,,-99.99,,2013-05-16 15:20:00,
2013-05-16 08:30:00,58.8,-99.9,29.96,East,83,0.0,7.7,-999,-99.99,,,-99.99,,2013-05-16 15:30:00,
2013-05-16 08:40:00,58.8,-99.9,29.97,WSW,254,0.0,15.0,-999,-99.99,,,-99.99,,2013-05-16 15:40:00,
2013-05-16 08:50:00,59.0,-99.9,29.96,WSW,254,0.0,0.0,-999,-99.99,,,-99.99,,2013-05-16 15:50:00,
2013-05-16 09:00:00,59.1,-99.9,29.96,WSW,254,0.0,0.0,-999,-99.99,,,-99.99,,2013-05-16 16:00:00,
2013-05-16 09:10:00,59.2,-99.9,29.97,WSW,254,0.0,0.0,-999,-99.99,,,-99.99,,2013-05-16 16:10:00,
2013-05-16 09:20:00,59.4,-99.9,29.97,WSW,254,0.0,0.0,-999,-99.99,,,-99.99,,2013-05-16 16:20:00,
2013-05-16 09:30:00,59.4,-99.9,29.97,WSW,254,0.0,0.0,-999,-99.99,,,-99.99,,2013-05-16 16:30:00,
2013-05-16 09:40:00,59.5,-99.9,29.97,NW,311,8.0,13.7,-999,-99.99,,,-99.99,,2013-05-16 16:40:00,
2013-05-16 09:50:00,59.5,-99.9,29.97,West,273,0.0,8.7,-999,-99.99,,,-99.99,,2013-05-16 16:50:00,
2013-05-16 10:00:00,59.6,-99.9,29.97,SSW,208,0.0,14.2,-999,-99.99,,,-99.99,,2013-05-16 17:00:00,
2013-05-16 10:10:00,59.6,-99.9,29.96,SW,220,0.0,0.0,-999,-99.99,,,-99.99,,2013-05-16 17:10:00,
2013-05-16 10:20:00,60.0,-99.9,29.97,West,261,0.0,4.0,-999,-99.99,,,-99.99,,2013-05-16 17:20:00,
2013-05-16 10:25:00,60.1,-99.9,29.97,WNW,285,0.0,6.8,-999,-99.99,,,-99.99,,2013-05-16 17:25:00,
2013-05-16 10:30:00,60.2,-99.9,29.97,West,276,9.0,17.1,-999,-99.99,,,-99.99,,2013-05-16 17:30:00,
2013-05-16 10:40:00,60.5,-99.9,29.97,West,273,0.0,11.7,-999,-99.99,,,-99.99,,2013-05-16 17:40:00,
2013-05-16 10:50:00,60.5,-99.9,29.97,WNW,299,0.0,17.5,-999,-99.99,,,-99.99,,2013-05-16 17:50:00,
2013-05-16 11:00:00,60.7,-99.9,29.97,West,278,0.0,0.0,-999,-99.99,,,-99.99,,2013-05-16 18:00:00,
2013-05-16 11:10:00,61.1,-99.9,29.97,South,182,0.0,0.0,-999,-99.99,,,-99.99,,2013-05-16 18:10:00,
2013-05-16 11:20:00,61.1,-99.9,29.97,WSW,249,6.0,8.2,-999,-99.99,,,-99.99,,2013-05-16 18:20:00,
2013-05-16 11:30:00,61.3,-99.9,29.97,SW,227,0.0,0.0,-999,-99.99,,,-99.99,,2013-05-16 18:30:00,
2013-05-16 11:40:00,61.9,-99.9,29.97,ESE,117,0.0,11.3,-999,-99.99,,,-99.99,,2013-05-16 18:40:00,
2013-05-16 11:45:00,61.8,-99.9,29.97,SW,223,0.0,0.0,-999,-99.99,,,-99.99,,2013-05-16 18:45:00,
2013-05-16 11:50:00,61.8,-99.9,29.97,WSW,248,14.0,14.0,-999,-99.99,,,-99.99,,2013-05-16 18:50:00,
2013-05-16 12:00:00,61.9,-99.9,29.97,SW,232,0.0,0.0,-999,-99.99,,,-99.99,,2013-05-16 19:00:00,
2013-05-16 12:05:00,62.3,-99.9,29.97,ESE,114,0.0,7.6,-999,-99.99,,,-99.99,,2013-05-16 19:05:00,
2013-05-16 12:10:00,62.4,-99.9,29.97,South,190,0.0,0.0,-999,-99.99,,,-99.99,,2013-05-16 19:10:00,
2013-05-16 12:20:00,62.4,-99.9,29.97,WSW,258,0.0,0.0,-999,-99.99,,,-99.99,,2013-05-16 19:20:00,
2013-05-16 12:30:00,63.0,-99.9,29.97,WNW,287,9.0,14.5,-999,-99.99,,,-99.99,,2013-05-16 19:30:00,
2013-05-16 12:35:00,63.0,-99.9,29.97,WNW,287,8.5,15.8,-999,-99.99,,,-99.99,,2013-05-16 19:35:00,
2013-05-16 12:40:00,63.3,-99.9,29.97,WNW,290,2.9,20.6,-999,-99.99,,,-99.99,,2013-05-16 19:40:00,
2013-05-16 12:50:00,63.3,-99.9,29.97,East,93,8.0,8.0,-999,-99.99,,,-99.99,,2013-05-16 19:50:00,
2013-05-16 13:00:00,63.4,-99.9,29.97,North,11,0.0,9.0,-999,-99.99,,,-99.99,,2013-05-16 20:00:00,
2013-05-16 13:10:00,63.4,-99.9,29.96,SW,223,0.0,8.5,-999,-99.99,,,-99.99,,2013-05-16 20:10:00,
2013-05-16 13:20:00,63.6,-99.9,29.96,West,259,0.0,0.0,-999,-99.99,,,-99.99,,2013-05-16 20:20:00,
2013-05-16 13:25:00,63.6,-99.9,29.96,ENE,63,0.0,13.5,-999,-99.99,,,-99.99,,2013-05-16 20:25:00,
2013-05-16 13:30:00,63.8,-99.9,29.96,WSW,245,0.0,20.1,-999,-99.99,,,-99.99,,2013-05-16 20:30:00,
2013-05-16 13:40:00,63.7,-99.9,29.96,WNW,287,9.0,16.9,-999,-99.99,,,-99.99,,2013-05-16 20:40:00,
2013-05-16 13:50:00,63.9,-99.9,29.96,SSE,165,0.0,4.7,-999,-99.99,,,-99.99,,2013-05-16 20:50:00,
2013-05-16 14:00:00,64.5,-99.9,29.96,SW,225,0.0,17.9,-999,-99.99,,,-99.99,,2013-05-16 21:00:00,
2013-05-16 14:10:00,64.6,-99.9,29.95,WSW,241,0.0,15.4,-999,-99.99,,,-99.99,,2013-05-16 21:10:00,
2013-05-16 14:20:00,64.6,-99.9,29.95,SE,132,7.7,18.3,-999,-99.99,,,-99.99,,2013-05-16 21:20:00,
2013-05-16 14:30:00,64.7,-99.9,29.94,West,272,0.0,14.3,-999,-99.99,,,-99.99,,2013-05-16 21:30:00,
2013-05-16 14:40:00,64.6,-99.9,29.95,NW,306,14.8,22.2,-999,-99.99,,,-99.99,,2013-05-16 21:40:00,
2013-05-16 14:50:00,64.0,-99.9,29.95,WSW,242,8.9,15.3,-999,-99.99,,,-99.99,,2013-05-16 21:50:00,
2013-05-16 15:00:00,64.1,-99.9,29.95,West,273,0.0,13.0,-999,-99.99,,,-99.99,,2013-05-16 22:00:00,
2013-05-16 15:05:00,64.1,-99.9,29.95,North,355,8.2,17.2,-999,-99.99,,,-99.99,,2013-05-16 22:05:00,
2013-05-16 15:10:00,64.1,-99.9,29.96,West,268,0.0,24.1,-999,-99.99,,,-99.99,,2013-05-16 22:10:00,
2013-05-16 15:20:00,64.2,-99.9,29.96,NW,321,9.0,17.2,-999,-99.99,,,-99.99,,2013-05-16 22:20:00,
2013-05-16 15:25:00,64.1,-99.9,29.96,WNW,292,11.4,19.8,-999,-99.99,,,-99.99,,2013-05-16 22:25:00,
2013-05-16 15:30:00,64.0,-99.9,29.95,North,5,8.2,14.0,-999,-99.99,,,-99.99,,2013-05-16 22:30:00,
2013-05-16 15:35:00,64.3,-99.9,29.94,WNW,289,0.0,0.0,-999,-99.99,,,-99.99,,2013-05-16 22:35:00,
2013-05-16 15:40:00,64.9,-99.9,29.94,WSW,247,11.1,13.8,-999,-99.99,,,-99.99,,2013-05-16 22:40:00,
2013-05-16 15:45:00,65.0,-99.9,29.94,West,279,8.7,14.8,-999,-99.99,,,-99.99,,2013-05-16 22:45:00,
2013-05-16 15:50:00,64.9,-99.9,29.94,SW,234,17.4,17.4,-999,-99.99,,,-99.99,,2013-05-16 22:50:00,
2013-05-16 15:55:00,65.0,-99.9,29.94,West,278,14.0,20.8,-999,-99.99,,,-99.99,,2013-05-16 22:55:00,
2013-05-16 16:00:00,64.9,-99.9,29.94,SW,221,8.5,19.0,-999,-99.99,,,-99.99,,2013-05-16 23:00:00,
2013-05-16 16:05:00,65.0,-99.9,29.94,WNW,297,11.9,20.6,-999,-99.99,,,-99.99,,2013-05-16 23:05:00,
2013-05-16 16:10:00,65.1,-99.9,29.94,NW,326,0.0,0.0,-999,-99.99,,,-99.99,,2013-05-16 23:10:00,
2013-05-16 16:20:00,64.6,-99.9,29.94,SW,230,11.7,19.3,-999,-99.99,,,-99.99,,2013-05-16 23:20:00,
2013-05-16 16:30:00,65.0,-99.9,29.94,West,263,14.8,14.8,-999,-99.99,,,-99.99,,2013-05-16 23:30:00,
2013-05-16 16:35:00,65.0,-99.9,29.94,WNW,282,11.1,34.3,-999,-99.99,,,-99.99,,2013-05-16 23:35:00,
2013-05-16 16:40:00,65.0,-99.9,29.94,NNW,340,13.8,15.4,-999,-99.99,,,-99.99,,2013-05-16 23:40:00,
2013-05-16 16:45:00,65.1,-99.9,29.94,SW,217,7.7,20.1,-999,-99.99,,,-99.99,,2013-05-16 23:45:00,
2013-05-16 16:50:00,65.0,-99.9,29.94,WNW,283,5.1,11.6,-999,-99.99,,,-99.99,,2013-05-16 23:50:00,
2013-05-16 17:00:00,65.1,-99.9,29.94,SSW,207,10.8,13.8,-999,-99.99,,,-99.99,,2013-05-17 00:00:00,
2013-05-16 17:05:00,65.2,-99.9,29.94,South,176,17.9,22.7,-999,-99.99,,,-99.99,,2013-05-17 00:05:00,
2013-05-16 17:10:00,65.1,-99.9,29.93,NW,304,13.5,15.1,-999,-99.99,,,-99.99,,2013-05-17 00:10:00,
2013-05-16 17:15:00,65.0,-99.9,29.93,SE,143,0.0,15.9,-999,-99.99,,,-99.99,,2013-05-17 00:15:00,
2013-05-16 17:20:00,64.8,-99.9,29.93,WNW,295,7.9,15.9,-999,-99.99,,,-99.99,,2013-05-17 00:20:00,
2013-05-16 17:25:00,64.8,-99.9,29.93,West,271,0.0,8.9,-999,-99.99,,,-99.99,,2013-05-17 00:25:00,
2013-05-16 17:30:00,64.8,-99.9,29.94,SW,227,0.0,8.4,-999,-99.99,,,-99.99,,2013-05-17 00:30:00,
2013-05-16 17:35:00,64.9,-99.9,29.94,NW,307,5.5,14.5,-999,-99.99,,,-99.99,,2013-05-17 00:35:00,
2013-05-16 17:40:00,64.9,-99.9,29.93,NW,310,8.2,15.4,-999,-99.99,,,-99.99,,2013-05-17 00:40:00,
2013-05-16 17:45:00,64.9,-99.9,29.93,West,278,0.0,0.0,-999,-99.99,,,-99.99,,2013-05-17 00:45:00,
2013-05-16 17:50:00,65.0,-99.9,29.93,SSW,203,18.2,20.1,-999,-99.99,,,-99.99,,2013-05-17 00:50:00,
2013-05-16 17:55:00,64.6,-99.9,29.93,NNW,334,8.9,16.1,-999,-99.99,,,-99.99,,2013-05-17 00:55:00,
2013-05-16 18:00:00,64.6,-99.9,29.93,WNW,295,22.0,22.7,-999,-99.99,,,-99.99,,2013-05-17 01:00:00,
2013-05-16 18:10:00,64.2,-99.9,29.94,West,271,15.0,21.6,-999,-99.99,,,-99.99,,2013-05-17 01:10:00,
2013-05-16 18:20:00,64.3,-99.9,29.94,NW,304,13.7,17.5,-999,-99.99,,,-99.99,,2013-05-17 01:20:00,
2013-05-16 18:30:00,64.4,-99.9,29.93,NNW,333,0.0,0.0,-999,-99.99,,,-99.99,,2013-05-17 01:30:00,
2013-05-16 18:40:00,64.4,-99.9,29.93,SW,228,0.0,0.0,-999,-99.99,,,-99.99,,2013-05-17 01:40:00,
2013-05-16 18:45:00,64.2,-99.9,29.93,SW,228,0.0,0.0,-999,-99.99,,,-99.99,,2013-05-17 01:45:00,
2013-05-16 18:50:00,64.1,-99.9,29.93,SSE,162,0.0,0.0,-999,-99.99,,,-99.99,,2013-05-17 01:50:00,
2013-05-16 19:00:00,64.1,-99.9,29.93,West,278,0.0,8.0,-999,-99.99,,,-99.99,,2013-05-17 02:00:00,
2013-05-16 19:05:00,63.7,-99.9,29.93,ENE,69,0.0,13.4,-999,-99.99,,,-99.99,,2013-05-17 02:05:00,
2013-05-16 19:10:00,63.7,-99.9,29.93,NW,306,0.0,8.5,-999,-99.99,,,-99.99,,2013-05-17 02:10:00,
2013-05-16 19:20:00,63.1,-99.9,29.93,WSW,245,0.0,0.0,-999,-99.99,,,-99.99,,2013-05-17 02:20:00,
2013-05-16 19:30:00,62.1,-99.9,29.94,SE,132,0.0,11.4,-999,-99.99,,,-99.99,,2013-05-17 02:30:00,
2013-05-16 19:40:00,61.9,-99.9,29.94,SW,223,0.0,0.0,-999,-99.99,,,-99.99,,2013-05-17 02:40:00,
2013-05-16 19:55:00,62.1,-99.9,29.95,WNW,287,0.0,15.4,-999,-99.99,,,-99.99,,2013-05-17 02:55:00,
2013-05-16 20:00:00,61.9,-99.9,29.94,NW,307,0.0,0.0,-999,-99.99,,,-99.99,,2013-05-17 03:00:00,
2013-05-16 20:10:00,61.8,-99.9,29.94,South,190,0.0,11.3,-999,-99.99,,,-99.99,,2013-05-17 03:10:00,
2013-05-16 20:20:00,61.5,-99.9,29.94,SW,227,0.0,12.4,-999,-99.99,,,-99.99,,2013-05-17 03:20:00,
2013-05-16 20:25:00,61.4,-99.9,29.94,South,191,0.0,0.0,-999,-99.99,,,-99.99,,2013-05-17 03:25:00,
2013-05-16 20:30:00,61.1,-99.9,29.94,South,191,0.0,0.0,-999,-99.99,,,-99.99,,2013-05-17 03:30:00,
2013-05-16 20:40:00,61.1,-99.9,29.94,East,86,0.0,0.0,-999,-99.99,,,-99.99,,2013-05-17 03:40:00,
2013-05-16 20:50:00,60.5,-99.9,29.94,ESE,108,0.0,0.0,-999,-99.99,,,-99.99,,2013-05-17 03:50:00,
2013-05-16 21:00:00,60.5,-99.9,29.94,SE,128,0.0,0.0,-999,-99.99,,,-99.99,,2013-05-17 04:00:00,
2013-05-16 21:05:00,60.5,-99.9,29.95,ENE,70,0.0,0.0,-999,-99.99,,,-99.99,,2013-05-17 04:05:00,
2013-05-16 21:10:00,60.5,-99.9,29.94,ENE,70,0.0,0.0,-999,-99.99,,,-99.99,,2013-05-17 04:10:00,
2013-05-16 21:15:00,60.4,-99.9,29.94,ESE,105,12.1,14.6,-999,-99.99,,,-99.99,,2013-05-17 04:15:00,
2013-05-16 21:20:00,60.3,-99.9,29.94,East,97,0.0,12.2,-999,-99.99,,,-99.99,,2013-05-17 04:20:00,
2013-05-16 21:30:00,60.3,-99.9,29.95,East,81,0.0,0.0,-999,-99.99,,,-99.99,,2013-05-17 04:30:00,
2013-05-16 21:40:00,60.0,-99.9,29.95,ENE,60,0.0,0.0,-999,-99.99,,,-99.99,,2013-05-17 04:40:00,
2013-05-16 21:50:00,60.0,-99.9,29.95,ENE,60,0.0,0.0,-999,-99.99,,,-99.99,,2013-05-17 04:50:00,
2013-05-16 22:00:00,59.6,-99.9,29.95,WNW,293,0.0,0.0,-999,-99.99,,,-99.99,,2013-05-17 05:00:00,
2013-05-16 22:05:00,59.5,-99.9,29.95,WNW,293,0.0,0.0,-999,-99.99,,,-99.99,,2013-05-17 05:05:00,
2013-05-16 22:10:00,59.4,-99.9,29.95,WSW,247,0.0,5.1,-999,-99.99,,,-99.99,,2013-05-17 05:10:00,
2013-05-16 22:20:00,59.5,-99.9,29.95,SSE,151,0.0,0.0,-999,-99.99,,,-99.99,,2013-05-17 05:20:00,
2013-05-16 22:30:00,59.3,-99.9,29.95,SSE,151,0.0,0.0,-999,-99.99,,,-99.99,,2013-05-17 05:30:00,
2013-05-16 22:35:00,59.5,-99.9,29.96,SSE,151,0.0,0.0,-999,-99.99,,,-99.99,,2013-05-17 05:35:00,
2013-05-16 22:40:00,59.1,-99.9,29.95,SSE,151,0.0,0.0,-999,-99.99,,,-99.99,,2013-05-17 05:40:00,
2013-05-16 22:50:00,58.8,-99.9,29.95,SSE,151,0.0,0.0,-999,-99.99,,,-99.99,,2013-05-17 05:50:00,
2013-05-16 23:00:00,58.6,-99.9,29.95,SSE,151,0.0,0.0,-999,-99.99,,,-99.99,,2013-05-17 06:00:00,
2013-05-16 23:10:00,58.1,-99.9,29.95,SSE,151,0.0,0.0,-999,-99.99,,,-99.99,,2013-05-17 06:10:00,
2013-05-16 23:20:00,58.2,-99.9,29.95,SSE,151,0.0,0.0,-999,-99.99,,,-99.99,,2013-05-17 06:20:00,
2013-05-16 23:30:00,58.3,-99.9,29.95,SSE,151,0.0,0.0,-999,-99.99,,,-99.99,,2013-05-17 06:30:00,
2013-05-16 23:35:00,58.1,-99.9,29.95,SSE,151,0.0,0.0,-999,-99.99,,,-99.99,,2013-05-17 06:35:00,
2013-05-16 23:40:00,58.0,-99.9,29.95,SSE,151,0.0,0.0,-999,-99.99,,,-99.99,,2013-05-17 06:40:00,
2013-05-16 23:45:00,58.1,-99.9,29.95,SSE,151,0.0,0.0,-999,-99.99,,,-99.99,,2013-05-17 06:45:00,
2013-05-16 23:50:00,57.9,-99.9,29.94,SSE,151,0.0,0.0,-999,-99.99,,,-99.99,,2013-05-17 06:50:00,